Location: Unspecified
(48.2082°N, 0.0000°E)
Time: 18:06:53
(UTC+00:00)

Tiros 1 despin weight - Pass Details

Date: 23 June 2019
Orbit: 594 x 642 km, 48.2° (Epoch: 24 August)

Event Time Altitude Azimuth Distance (km) Brightness Sun altitude
Rises 05:04:15 0° 282° (WNW) 2,831 ? 8.3°
Reaches altitude 10° 05:07:01 10° 265° (W) 1,927 ? 8.7°
Maximum altitude 05:10:11 19° 218° (SW) 1,412 ? 9.2°
Drops below altitude 10° 05:13:22 10° 172° (S) 1,928 ? 9.6°
Sets 05:16:09 0° 155° (SSE) 2,833 ? 10.1°
